一网星座-0259星 (ONEWEB-0259 )

导读

ONEWEB-0259是英国OneWeb卫星星座的一颗低轨宽带通信卫星,于2021年7月1日发射入轨。卫星运行于高度约1200公里的近地轨道,配备Ku和Ka波段天线,采用氙等离子体推力器,单星发射质量约147.5公斤,设计寿命超7年。 该卫星是OneWeb第一代全球低轨互联网星座的组成部分,旨在为全球提供低时延宽带接入服务,覆盖航空、海事、社区WiFi与应急通信等领域,助力实现全球无缝网络覆盖,目前OneWeb已完成一代组网并启动第二代星座规划。

Basic Information
目录编号:
48977
目录名称:
ONEWEB-0259
国际标识:
2021-060L
轨道中心:
EARTH
卫星名称:
一网星座-0259星
卫星全名:
一网星座-0259星 (ONEWEB-0259 )
卫星状态:
在轨 (已飞行1898 天)
发射日期:
2021-07-01 UTC
国别 :
英国 (GB)
星等 :
--
This satellite is enrolled in the Space Conjunction Data Service (SCDS) and the current flight risk assessment level is: High Risk
Orbit Information
数据来源 国际轨道数据 AOE轨道数据
星历时间 2026-09-11T14:41:08+0800
9小时前
查看轨道信息
2026-09-10T07:00:00+0800
1天前
查看轨道信息
半长轴 7575.9km 7575.889km
偏心率 0.0001932 0.0002094
轨道倾角 87.914° 87.914°
近地点辐角 73.686° 70.848°
升交点赤经 211.686° 211.946°
平近点角 286.449° 155.323°
近地点 1196.299km 1196.165km
远地点 1199.227km 1199.339km
周期 109.373分钟 109.373分钟
每日圈数 13.165928 13.165957
Detailed Information
平衡模式:
三轴稳定
覆盖范围:
全球
运营商:
一网卫星公司
运营商所在国:
英国
制造商(研发单位):
一网卫星公司
制造商所在国:
英国
使用方式:
暂无
Satellite Introduction
OneWeb卫星网络由648颗重约125公斤的微型卫星组成,运行在1200公里的轨道上。 每颗卫星都能够提供至少每秒8千兆位的吞吐量,以使用其高吞吐量的Ku频段有效载荷为家庭和移动平台提供互联网接入。该卫星仍在工作。
2D Orbit Map
3D Orbit Map
Orbit Altitude Analysis Chart
Orbit Inclination Analysis Chart
Orbit Comprehensive Analysis Chart
View Comprehensive Chart
Miss Distance Evolution Trend with All Objects
Collision Probability Evolution Trend with All Objects